| time (UTC) | temp F | wind direction | speed MPH | gust MPH | rain 1hr in | rain 24hr in | rain mn in | humidity % | barometer mb |
| 20260504233917 | 69 | 197 | 4.0 | 12.0 | 0.00 | 0.01 | 0.01 | 63 | 1001.7 |
| 20260504233421 | 69 | 188 | 5.0 | 13.0 | 0.00 | 0.01 | 0.01 | 63 | 1001.5 |
| 20260504232853 | 69 | 169 | 5.0 | 13.0 | 0.00 | 0.01 | 0.01 | 64 | 1001.3 |
| 20260504232358 | 68 | 165 | 3.0 | 11.0 | 0.01 | 0.01 | 0.01 | 66 | 1001.2 |
| 20260504231829 | 68 | 193 | 4.0 | 11.0 | 0.01 | 0.01 | 0.01 | 67 | 1001.1 |
| 20260504231323 | 67 | 179 | 3.0 | 7.0 | 0.01 | 0.01 | 0.01 | 68 | 1001.4 |
| 20260504230759 | 67 | 186 | 3.0 | 7.0 | 0.01 | 0.01 | 0.01 | 69 | 1001.5 |
| 20260504230300 | 67 | 186 | 3.0 | 7.0 | 0.01 | 0.01 | 0.01 | 69 | 1001.6 |
| 20260504225740 | 67 | 186 | 3.0 | 9.0 | 0.01 | 0.01 | 0.01 | 69 | 1001.6 |
| 20260504225235 | 67 | 182 | 3.0 | 9.0 | 0.01 | 0.01 | 0.01 | 70 | 1001.8 |
| 20260504224933 | 67 | 189 | 3.0 | 10.0 | 0.01 | 0.01 | 0.01 | 71 | 1002.0 |
| 20260504224430 | 67 | 172 | 4.0 | 11.0 | 0.01 | 0.01 | 0.01 | 71 | 1002.0 |
| 20260504223659 | 67 | 184 | 8.0 | 23.0 | 0.01 | 0.01 | 0.01 | 69 | 1002.1 |
| 20260504223129 | 69 | 180 | 7.0 | 23.0 | 0.01 | 0.01 | 0.01 | 66 | 1002.5 |
| 20260504222629 | 71 | 209 | 7.0 | 17.0 | 0.00 | 0.00 | 0.00 | 58 | 1002.4 |
| 20260504222317 | 71 | 117 | 6.0 | 17.0 | 0.00 | 0.00 | 0.00 | 56 | 1002.2 |
| 20260504221559 | 71 | 184 | 6.0 | 13.0 | 0.00 | 0.00 | 0.00 | 56 | 1002.3 |
| 20260504221031 | 71 | 175 | 5.0 | 13.0 | 0.00 | 0.00 | 0.00 | 56 | 1002.4 |
| 20260504220513 | 71 | 176 | 5.0 | 13.0 | 0.00 | 0.00 | 0.00 | 55 | 1002.5 |
| 20260504220011 | 72 | 163 | 5.0 | 13.0 | 0.00 | 0.00 | 0.00 | 54 | 1002.6 |
| 20260504215442 | 72 | 178 | 5.0 | 15.0 | 0.00 | 0.00 | 0.00 | 55 | 1002.6 |
| 20260504214914 | 72 | 184 | 6.0 | 15.0 | 0.00 | 0.00 | 0.00 | 54 | 1002.6 |
| 20260504214415 | 72 | 160 | 7.0 | 13.0 | 0.00 | 0.00 | 0.00 | 53 | 1002.6 |
| 20260504213845 | 72 | 166 | 7.0 | 15.0 | 0.00 | 0.00 | 0.00 | 53 | 1002.4 |
| 20260504213345 | 72 | 198 | 6.0 | 15.0 | 0.00 | 0.00 | 0.00 | 52 | 1002.6 |
| 20260504212810 | 72 | 143 | 5.0 | 19.0 | 0.00 | 0.00 | 0.00 | 53 | 1002.6 |
| 20260504212315 | 72 | 169 | 6.0 | 19.0 | 0.00 | 0.00 | 0.00 | 51 | 1002.8 |
| 20260504211806 | 73 | 190 | 5.0 | 15.0 | 0.00 | 0.00 | 0.00 | 50 | 1002.9 |
| 20260504211311 | 73 | 242 | 4.0 | 13.0 | 0.00 | 0.00 | 0.00 | 50 | 1002.9 |
| 20260504210746 | 73 | 184 | 6.0 | 16.0 | 0.00 | 0.00 | 0.00 | 49 | 1003.0 |
| 20260504210443 | 73 | 165 | 7.0 | 16.0 | 0.00 | 0.00 | 0.00 | 49 | 1002.8 |
| 20260504205719 | 73 | 161 | 5.0 | 13.0 | 0.00 | 0.00 | 0.00 | 48 | 1002.9 |
| 20260504205143 | 73 | 198 | 3.0 | 9.0 | 0.00 | 0.00 | 0.00 | 48 | 1002.9 |
| 20260504204645 | 73 | 178 | 4.0 | 11.0 | 0.00 | 0.00 | 0.00 | 48 | 1003.0 |
| 20260504204603 | 73 | 181 | 5.0 | 13.0 | 0.00 | 0.00 | 0.00 | 48 | 1002.9 |
| 20260504203625 | 72 | 213 | 5.0 | 14.0 | 0.00 | 0.00 | 0.00 | 48 | 1002.9 |
| 20260504203059 | 72 | 173 | 4.0 | 14.0 | 0.00 | 0.00 | 0.00 | 47 | 1002.9 |
| 20260504202552 | 72 | 137 | 5.0 | 13.0 | 0.00 | 0.00 | 0.00 | 47 | 1003.0 |
| 20260504202029 | 72 | 150 | 5.0 | 14.0 | 0.00 | 0.00 | 0.00 | 47 | 1002.9 |
| 20260504201502 | 73 | 183 | 5.0 | 14.0 | 0.00 | 0.00 | 0.00 | 51 | 1003.0 |
| 20260504201155 | 72 | 211 | 5.0 | 12.0 | 0.00 | 0.00 | 0.00 | 49 | 1003.0 |
| 20260504200433 | 73 | 175 | 4.0 | 12.0 | 0.00 | 0.00 | 0.00 | 47 | 1003.2 |
| 20260504195924 | 73 | 202 | 4.0 | 10.0 | 0.00 | 0.00 | 0.00 | 47 | 1003.2 |
| 20260504195356 | 73 | 182 | 4.0 | 10.0 | 0.00 | 0.00 | 0.00 | 49 | 1003.4 |
| 20260504194859 | 73 | 190 | 4.0 | 10.0 | 0.00 | 0.00 | 0.00 | 47 | 1003.4 |
| 20260504194350 | 72 | 192 | 4.0 | 16.0 | 0.00 | 0.00 | 0.00 | 49 | 1003.4 |
| 20260504193840 | 72 | 185 | 5.0 | 16.0 | 0.00 | 0.00 | 0.00 | 49 | 1003.5 |
| 20260504193321 | 72 | 168 | 5.0 | 11.0 | 0.00 | 0.00 | 0.00 | 48 | 1003.7 |
| 20260504192801 | 72 | 201 | 5.0 | 13.0 | 0.00 | 0.00 | 0.00 | 49 | 1003.7 |
| 20260504192255 | 72 | 186 | 5.0 | 15.0 | 0.00 | 0.00 | 0.00 | 48 | 1003.8 |
| 20260504191744 | 72 | 161 | 5.0 | 15.0 | 0.00 | 0.00 | 0.00 | 47 | 1003.8 |
| 20260504191240 | 72 | 180 | 6.0 | 13.0 | 0.00 | 0.00 | 0.00 | 46 | 1003.8 |
| 20260504190704 | 72 | 175 | 5.0 | 13.0 | 0.00 | 0.00 | 0.00 | 46 | 1003.9 |
| 20260504190204 | 72 | 171 | 4.0 | 9.0 | 0.00 | 0.00 | 0.00 | 46 | 1004.0 |
| 20260504185706 | 72 | 173 | 6.0 | 13.0 | 0.00 | 0.00 | 0.00 | 44 | 1004.3 |
| 20260504185149 | 72 | 186 | 7.0 | 13.0 | 0.00 | 0.00 | 0.00 | 44 | 1004.0 |
| 20260504184637 | 72 | 202 | 6.0 | 13.0 | 0.00 | 0.00 | 0.00 | 44 | 1004.3 |
| 20260504184126 | 72 | 197 | 6.0 | 13.0 | 0.00 | 0.00 | 0.00 | 42 | 1004.4 |
| 20260504183612 | 71 | 165 | 7.0 | 13.0 | 0.00 | 0.00 | 0.00 | 42 | 1004.4 |
| 20260504183114 | 71 | 189 | 6.0 | 13.0 | 0.00 | 0.00 | 0.00 | 46 | 1004.3 |
| 20260504182807 | 71 | 173 | 6.0 | 16.0 | 0.00 | 0.00 | 0.00 | 46 | 1004.4 |
| 20260504182013 | 72 | 184 | 5.0 | 16.0 | 0.00 | 0.00 | 0.00 | 45 | 1004.5 |
| 20260504181710 | 72 | 223 | 4.0 | 12.0 | 0.00 | 0.00 | 0.00 | 42 | 1004.4 |
| 20260504180941 | 71 | 166 | 5.0 | 12.0 | 0.00 | 0.00 | 0.00 | 46 | 1004.6 |
| 20260504180442 | 71 | 173 | 6.0 | 12.0 | 0.00 | 0.00 | 0.00 | 45 | 1004.4 |
| 20260504180150 | 71 | 169 | 6.0 | 12.0 | 0.00 | 0.00 | 0.00 | 48 | 1004.4 |
| 20260504175434 | 70 | 174 | 7.0 | 14.0 | 0.00 | 0.00 | 0.00 | 47 | 1004.6 |
| 20260504174918 | 70 | 171 | 9.0 | 16.0 | 0.00 | 0.00 | 0.00 | 45 | 1004.5 |
| 20260504174422 | 71 | 157 | 6.0 | 16.0 | 0.00 | 0.00 | 0.00 | 46 | 1004.6 |
| 20260504173856 | 71 | 169 | 4.0 | 12.0 | 0.00 | 0.00 | 0.00 | 46 | 1004.8 |
| 20260504173607 | 71 | 190 | 4.0 | 12.0 | 0.00 | 0.00 | 0.00 | 48 | 1004.8 |
| 20260504173108 | 70 | 234 | 5.0 | 12.0 | 0.00 | 0.00 | 0.00 | 47 | 1004.7 |
| 20260504172308 | 71 | 165 | 3.0 | 12.0 | 0.00 | 0.00 | 0.00 | 46 | 1004.8 |
| 20260504171758 | 71 | 152 | 5.0 | 13.0 | 0.00 | 0.00 | 0.00 | 47 | 1004.8 |
| 20260504171258 | 70 | 188 | 7.0 | 13.0 | 0.00 | 0.00 | 0.00 | 45 | 1004.9 |
| 20260504171013 | 71 | 199 | 4.0 | 13.0 | 0.00 | 0.00 | 0.00 | 45 | 1005.0 |
| 20260504170501 | 71 | 185 | 4.0 | 10.0 | 0.00 | 0.00 | 0.00 | 45 | 1004.9 |
| 20260504160134 | 68 | 198 | 4.0 | 15.0 | 0.00 | 0.00 | 0.00 | 52 | 1005.6 |
| 20260504151145 | 65 | 173 | 5.0 | 12.0 | 0.00 | 0.00 | 0.00 | 54 | 1005.9 |
| 20260504150411 | 65 | 153 | 3.0 | 12.0 | 0.00 | 0.00 | 0.00 | 54 | 1005.8 |
| 20260504150129 | 65 | 140 | 4.0 | 13.0 | 0.00 | 0.00 | 0.00 | 56 | 1005.9 |
| 20260504141210 | 61 | 175 | 4.0 | 7.0 | 0.00 | 0.00 | 0.00 | 60 | 1005.9 |
| 20260504140926 | 61 | 201 | 3.0 | 12.0 | 0.00 | 0.00 | 0.00 | 61 | 1005.9 |
| 20260504140654 | 60 | 172 | 4.0 | 12.0 | 0.00 | 0.00 | 0.00 | 60 | 1005.9 |
| 20260504110642 | 51 | 210 | 7.0 | 13.0 | 0.00 | 0.00 | 0.00 | 68 | 1005.7 |
| 20260504110118 | 51 | 158 | 6.0 | 13.0 | 0.00 | 0.00 | 0.00 | 68 | 1005.7 |
| 20260504100417 | 51 | 173 | 6.0 | 10.0 | 0.00 | 0.00 | 0.00 | 66 | 1005.5 |
| 20260504090141 | 51 | 169 | 6.0 | 11.0 | 0.00 | 0.00 | 0.00 | 65 | 1006.1 |
| 20260504081728 | 51 | 176 | 6.0 | 10.0 | 0.00 | 0.00 | 0.00 | 65 | 1006.4 |
| 20260504081014 | 51 | 180 | 6.0 | 11.0 | 0.00 | 0.00 | 0.00 | 65 | 1006.5 |
| 20260504080937 | 51 | 182 | 6.0 | 7.0 | 0.00 | 0.00 | 0.00 | 65 | 1006.4 |
| 20260504060247 | 51 | 179 | 4.0 | 11.0 | 0.00 | 0.00 | 0.00 | 65 | 1008.1 |
| 20260504050745 | 52 | 178 | 5.0 | 9.0 | 0.00 | 0.00 | 0.00 | 63 | 1008.9 |
| 20260504050022 | 52 | 197 | 4.0 | 9.0 | 0.00 | 0.00 | 0.00 | 63 | 1009.1 |
| 20260504045450 | 52 | 157 | 4.0 | 6.0 | 0.00 | 0.00 | 0.00 | 63 | 1009.1 |
| 20260504044949 | 51 | 171 | 3.0 | 5.0 | 0.00 | 0.00 | 0.00 | 63 | 1009.1 |
| 20260504044451 | 51 | 176 | 4.0 | 6.0 | 0.00 | 0.00 | 0.00 | 63 | 1009.0 |
| 20260504044204 | 51 | 176 | 4.0 | 6.0 | 0.00 | 0.00 | 0.00 | 64 | 1009.0 |
| 20260504043445 | 52 | 178 | 4.0 | 6.0 | 0.00 | 0.00 | 0.00 | 64 | 1009.1 |
| 20260504042914 | 52 | 179 | 4.0 | 6.0 | 0.00 | 0.00 | 0.00 | 64 | 1009.1 |
| 20260504042345 | 52 | 180 | 4.0 | 9.0 | 0.00 | 0.00 | 0.00 | 63 | 1009.2 |
| 20260504042104 | 52 | 178 | 3.0 | 9.0 | 0.00 | 0.00 | 0.00 | 63 | 1009.3 |
| 20260504041340 | 52 | 184 | 3.0 | 6.0 | 0.00 | 0.00 | 0.00 | 63 | 1009.3 |
| 20260504041033 | 52 | 184 | 3.0 | 10.0 | 0.00 | 0.00 | 0.00 | 62 | 1009.4 |
| 20260504040227 | 52 | 184 | 3.0 | 10.0 | 0.00 | 0.00 | 0.00 | 62 | 1009.5 |
| 20260504035702 | 52 | 173 | 4.0 | 11.0 | 0.00 | 0.00 | 0.00 | 61 | 1009.6 |
| 20260504035157 | 52 | 192 | 5.0 | 11.0 | 0.00 | 0.00 | 0.00 | 61 | 1009.6 |
| 20260504035149 | 52 | 185 | 4.0 | 9.0 | 0.00 | 0.00 | 0.00 | 60 | 1009.6 |
| 20260504034129 | 52 | 171 | 4.0 | 8.0 | 0.00 | 0.00 | 0.00 | 60 | 1009.9 |
| 20260504033555 | 52 | 189 | 3.0 | 6.0 | 0.00 | 0.00 | 0.00 | 61 | 1009.7 |
| 20260504033048 | 52 | 179 | 3.0 | 6.0 | 0.00 | 0.00 | 0.00 | 60 | 1009.8 |
| 20260504032537 | 52 | 178 | 4.0 | 7.0 | 0.00 | 0.00 | 0.00 | 60 | 1009.7 |
| 20260504032041 | 52 | 179 | 3.0 | 7.0 | 0.00 | 0.00 | 0.00 | 60 | 1009.7 |
| 20260504031503 | 52 | 184 | 3.0 | 5.0 | 0.00 | 0.00 | 0.00 | 60 | 1009.9 |
| 20260504031006 | 52 | 184 | 3.0 | 5.0 | 0.00 | 0.00 | 0.00 | 60 | 1009.9 |
| 20260504030435 | 52 | 184 | 3.0 | 7.0 | 0.00 | 0.00 | 0.00 | 59 | 1010.2 |
| 20260504025913 | 52 | 171 | 2.0 | 6.0 | 0.00 | 0.00 | 0.00 | 58 | 1010.2 |
| 20260504025357 | 53 | 189 | 2.0 | 6.0 | 0.00 | 0.00 | 0.00 | 58 | 1010.4 |
| 20260504025116 | 53 | 191 | 2.0 | 7.0 | 0.00 | 0.00 | 0.00 | 58 | 1010.6 |
| 20260504024359 | 53 | 224 | 3.0 | 10.0 | 0.00 | 0.00 | 0.00 | 57 | 1010.5 |
| 20260504023833 | 53 | 173 | 3.0 | 10.0 | 0.00 | 0.00 | 0.00 | 56 | 1010.5 |
| 20260504023320 | 53 | 202 | 2.0 | 7.0 | 0.00 | 0.00 | 0.00 | 55 | 1010.6 |
| 20260504022813 | 53 | 190 | 2.0 | 7.0 | 0.00 | 0.00 | 0.00 | 54 | 1010.5 |
| 20260504022311 | 53 | 175 | 0.0 | 2.0 | 0.00 | 0.00 | 0.00 | 53 | 1010.4 |
| 20260504021753 | 53 | 194 | 0.0 | 3.0 | 0.00 | 0.00 | 0.00 | 53 | 1010.3 |
| 20260504021237 | 53 | 194 | 1.0 | 3.0 | 0.00 | 0.00 | 0.00 | 53 | 1010.2 |
| 20260504021202 | 53 | 200 | 1.0 | 3.0 | 0.00 | 0.00 | 0.00 | 53 | 1010.2 |
| 20260504020151 | 54 | 200 | 1.0 | 3.0 | 0.00 | 0.00 | 0.00 | 52 | 1010.3 |
| 20260504015543 | 54 | 200 | 1.0 | 3.0 | 0.00 | 0.00 | 0.00 | 52 | 1010.3 |
| 20260504015046 | 54 | 200 | 0.0 | 3.0 | 0.00 | 0.00 | 0.00 | 51 | 1010.2 |
| 20260504014515 | 54 | 211 | 0.0 | 0.0 | 0.00 | 0.00 | 0.00 | 51 | 1010.2 |
| 20260504013939 | 54 | 211 | 0.0 | 3.0 | 0.00 | 0.00 | 0.00 | 51 | 1010.1 |
| 20260504013627 | 55 | 211 | 1.0 | 4.0 | 0.00 | 0.00 | 0.00 | 50 | 1010.1 |
| 20260504012827 | 55 | 211 | 1.0 | 6.0 | 0.00 | 0.00 | 0.00 | 50 | 1010.0 |
| 20260504012331 | 55 | 211 | 3.0 | 6.0 | 0.00 | 0.00 | 0.00 | 49 | 1010.1 |
| 20260504011821 | 55 | 224 | 2.0 | 9.0 | 0.00 | 0.00 | 0.00 | 49 | 1010.0 |
| 20260504011324 | 55 | 186 | 2.0 | 13.0 | 0.00 | 0.00 | 0.00 | 49 | 1010.1 |
| 20260504010803 | 56 | 165 | 3.0 | 13.0 | 0.00 | 0.00 | 0.00 | 49 | 1010.1 |
| 20260504010251 | 56 | 175 | 2.0 | 10.0 | 0.00 | 0.00 | 0.00 | 48 | 1010.1 |
| 20260504005716 | 56 | 176 | 2.0 | 6.0 | 0.00 | 0.00 | 0.00 | 48 | 1010.0 |
| 20260504005147 | 56 | 174 | 1.0 | 6.0 | 0.00 | 0.00 | 0.00 | 48 | 1010.0 |
| 20260504004647 | 56 | 163 | 1.0 | 5.0 | 0.00 | 0.00 | 0.00 | 48 | 1010.0 |
| 20260504004415 | 56 | 178 | 2.0 | 7.0 | 0.00 | 0.00 | 0.00 | 47 | 1010.0 |
| 20260504003637 | 56 | 182 | 3.0 | 10.0 | 0.00 | 0.00 | 0.00 | 47 | 1010.0 |
| 20260504003139 | 57 | 193 | 2.0 | 10.0 | 0.00 | 0.00 | 0.00 | 47 | 1010.1 |
| 20260504002623 | 57 | 155 | 2.0 | 5.0 | 0.00 | 0.00 | 0.00 | 48 | 1010.0 |
| 20260504002346 | 57 | 162 | 2.0 | 7.0 | 0.00 | 0.00 | 0.00 | 49 | 1009.9 |
| 20260504001613 | 57 | 158 | 3.0 | 7.0 | 0.00 | 0.00 | 0.00 | 48 | 1010.0 |
| 20260504001115 | 57 | 179 | 4.0 | 11.0 | 0.00 | 0.00 | 0.00 | 48 | 1010.0 |
| 20260504000552 | 57 | 176 | 3.0 | 11.0 | 0.00 | 0.00 | 0.00 | 47 | 1010.0 |
| 20260504000300 | 57 | 170 | 3.0 | 11.0 | 0.00 | 0.00 | 0.00 | 48 | 1009.9 |
| 20260504000032 | 57 | 207 | 3.0 | 11.0 | 0.00 | 0.00 | 0.00 | 47 | 1009.9 |
| 20260503235017 | 57 | 166 | 2.0 | 8.0 | 0.00 | 0.00 | 0.00 | 48 | 1010.0 |